Location: ??
(31.9467°N, 34.8903°E)
Time: 11:58:56
(UTC+00:00)

Cosmos 2278 - Pass Details

Date: 29 October 2020
Orbit: 842 x 851 km, 71.1° (Epoch: 27 November)

Event Time Altitude Azimuth Distance (km) Brightness Sun altitude
Rises 16:16:40 0° 199° (SSW) 3,396 7.2 -18.2°
Reaches altitude 10° 16:19:06 10° 199° (SSW) 2,463 6.4 -18.8°
Maximum altitude 16:24:47 89° 292° (WNW) 851 3.6 -20.0°
Drops below altitude 10° 16:30:28 10° 20° (NNE) 2,470 5.9 -21.2°
Enters shadow 16:30:44 - 20° (NNE) 2,573 6.0 -21.2°
